Starlink 32133

operational
NORAD ID: 60333 Int'l Des: 2024-136 Owner: SPXS Country: US Constellation: starlink
LEOCIRCULAR

Über Starlink 32133

Beschreibung wird geladen...

Live-Position

3D-Globus wird geladen...

Nächste Überflüge

Höhenverlauf

Altitude vs Time

uPlot chart will show altitude changes over time

Zweizeiliger Elementsatz

1 60333U 24136E 25260.94792755 .00004061 00000-0 14913-3 0 9996
2 60333 53.1593 158.2803 0001223 86.8284 273.2857 15.30204496 63214
Epoch: 17. Sept. 2025 • Age: 23 hours

Aktueller Status

Höhe 488.3 km
Geschwindigkeit 7.62 km/s
Subsatellitenpunkt -38.36°S, 46.43°E
Startdatum 2. Aug. 2024
Alter 1.1 years
Typ internet

Technische Details

Klassifizierung Payload
Masse 730.00 kg
Trockenmasse 700.00 kg
Gesamtmasse 730.00 kg
Länge 0.30 m
Durchmesser 4.10 m
Spannweite 29.00 m
Form Box + pan
Hersteller SPXS
Bus-Typ Starlink V2M
Phasenstatus In Orbit
Besitzer/Staat SPXS/US

Große Konstellationen

Loading constellations...